Starlink 32815

operational
NORAD ID: 62956 Int'l Des: 2025-029 Owner: SPXS Country: US Constellation: starlink
LEOCIRCULAR

About Starlink 32815

Description loading...

Live Position

Loading 3D Globe...

Upcoming Passes

Altitude History

Altitude vs Time

uPlot chart will show altitude changes over time

Two-Line Element Set

1 62956U 25029J 25352.13623107 .00019511 00000-0 66920-3 0 9999
2 62956 53.1582 248.9782 0001294 83.3960 276.7188 15.30197208 48871
Epoch: Dec 18, 2025 • Age: 22 hours

Current Status

Altitude 475.1 km
Velocity 7.63 km/s
Sub-Earth Point 18.50°N, 151.5°E
Launch Date Feb 11, 2025
Age 0.8 years
Type internet

Technical Details

Classification Payload
Mass 730.00 kg
Dry Mass 700.00 kg
Total Mass 730.00 kg
Length 0.30 m
Diameter 4.10 m
Span 29.00 m
Shape Box + pan
Manufacturer SPXS
Bus Type Starlink V2M
Phase Status In Orbit
Owner/State SPXS/US

Large Constellations

Loading constellations...